,,,PA_Meas_PMT16A,,PR_Meas_QMR101_102,,RH_Meas_QMH101,,SR_Meas_QMS101,,TA_Meas_QMH101,,GenWind,,GenWind,
date,time,status,PA,status,PR,status,RH,status,SR,status,TA,status,DirAvg,status,SpdAvg,
2008-06-08, 00:00:04,VALID,1009.34,VALID,0,VALID,93.9722,VALID,0.105969,VALID,24.3566,VALID,10,VALID,0,
2008-06-08, 00:01:04,VALID,1009.35,VALID,0,VALID,94.0332,VALID,0,VALID,24.3371,VALID,10,VALID,0,
2008-06-08, 00:02:04,VALID,1009.29,VALID,0,VALID,94.0865,VALID,0.105969,VALID,24.3566,VALID,10,VALID,0,
2008-06-08, 00:03:04,VALID,1009.32,VALID,0,VALID,94.056,VALID,0.105969,VALID,24.3371,VALID,10,VALID,0,
2008-06-08, 00:04:04,VALID,1009.28,VALID,0,VALID,94.0332,VALID,0,VALID,24.3176,VALID,10,VALID,0,
2008-06-08, 00:05:04,VALID,1009.27,VALID,0,VALID,94.0179,VALID,0.105969,VALID,24.2963,VALID,10,VALID,0,
2008-06-08, 00:06:04,VALID,1009.28,VALID,0,VALID,94.1476,VALID,0.105969,VALID,24.3371,VALID,10,VALID,0,
2008-06-08, 00:07:04,VALID,1009.25,VALID,0,VALID,94.1476,VALID,0.105969,VALID,24.3158,VALID,10,VALID,0,
2008-06-08, 00:08:04,VALID,1009.24,VALID,0,VALID,94.1171,VALID,0.105969,VALID,24.3176,VALID,10,VALID,0,
2008-06-08, 00:09:04,VALID,1009.19,VALID,0,VALID,94.0942,VALID,0.105969,VALID,24.3176,VALID,10,VALID,0.389453,
2008-06-08, 00:10:04,VALID,1009.18,VALID,0,VALID,94.1628,VALID,0.105969,VALID,24.2963,VALID,50,VALID,0.414063,
2008-06-08, 00:11:04,VALID,1009.19,VALID,0,VALID,94.056,VALID,0.105969,VALID,24.3176,VALID,67,VALID,0.4375,
2008-06-08, 00:12:04,VALID,1009.17,VALID,0,VALID,94.0179,VALID,0.105969,VALID,24.2768,VALID,72,VALID,0.382031,
2008-06-08, 00:13:04,VALID,1009.16,VALID,0,VALID,94.0179,VALID,0.105969,VALID,24.2981,VALID,74,VALID,0.361719,
2008-06-08, 00:14:04,VALID,1009.15,VALID,0,VALID,94.0103,VALID,0.105969,VALID,24.2963,VALID,89,VALID,0.402344,
2008-06-08, 00:15:04,VALID,1009.11,VALID,0,VALID,94.0713,VALID,0.105969,VALID,24.2963,VALID,95,VALID,0.500781,
2008-06-08, 00:16:04,VALID,1009.11,VALID,0,VALID,93.995,VALID,0.105969,VALID,24.2768,VALID,91,VALID,0.610156,
2008-06-08, 00:17:04,VALID,1009.07,VALID,0,VALID,94.0103,VALID,0.105969,VALID,24.3158,VALID,97,VALID,0.582031,
2008-06-08, 00:18:04,VALID,1009.05,VALID,0,VALID,94.0103,VALID,0,VALID,24.2963,VALID,103,VALID,0.969922,
2008-06-08, 00:19:04,VALID,1009,VALID,0,VALID,93.934,VALID,0,VALID,24.3352,VALID,96,VALID,0.983203,
2008-06-08, 00:20:04,VALID,1009,VALID,0,VALID,93.7281,VALID,0.105969,VALID,24.3158,VALID,92,VALID,0.86875,
2008-06-08, 00:21:04,VALID,1008.96,VALID,0,VALID,93.6519,VALID,0.105969,VALID,24.3352,VALID,81,VALID,0.913281,
2008-06-08, 00:22:04,VALID,1008.93,VALID,0,VALID,93.6137,VALID,0.105969,VALID,24.3352,VALID,89,VALID,0.601172,
2008-06-08, 00:23:04,VALID,1008.91,VALID,0,VALID,93.69,VALID,0.105969,VALID,24.3352,VALID,90,VALID,0.450781,
2008-06-08, 00:24:04,VALID,1008.9,VALID,0,VALID,93.7205,VALID,0.105969,VALID,24.3352,VALID,86,VALID,0.522656,
2008-06-08, 00:25:04,VALID,1008.86,VALID,0,VALID,93.7586,VALID,0.105969,VALID,24.3352,VALID,81,VALID,0.546484,
2008-06-08, 00:26:04,VALID,1008.83,VALID,0,VALID,93.7434,VALID,0.105969,VALID,24.3371,VALID,77,VALID,0.528906,
2008-06-08, 00:27:04,VALID,1008.85,VALID,0,VALID,93.7815,VALID,0.105969,VALID,24.3176,VALID,55,VALID,0.5375,
2008-06-08, 00:28:04,VALID,1008.83,VALID,0,VALID,93.7586,VALID,0,VALID,24.2963,VALID,61,VALID,0.530469,
2008-06-08, 00:29:04,VALID,1008.82,VALID,0,VALID,93.7586,VALID,0,VALID,24.3176,VALID,59,VALID,0.667578,
2008-06-08, 00:30:04,VALID,1008.84,VALID,0,VALID,93.7739,VALID,0,VALID,24.2981,VALID,63,VALID,0.317969,
2008-06-08, 00:31:04,VALID,1008.83,VALID,0,VALID,93.7815,VALID,0.105969,VALID,24.2768,VALID,50,VALID,0.363672,
2008-06-08, 00:32:04,VALID,1008.82,VALID,0,VALID,93.7891,VALID,0,VALID,24.2786,VALID,49,VALID,0.444141,
2008-06-08, 00:33:04,VALID,1008.8,VALID,0,VALID,93.8349,VALID,0,VALID,24.2573,VALID,45,VALID,0.464844,
2008-06-08, 00:34:04,VALID,1008.83,VALID,0,VALID,93.8502,VALID,0,VALID,24.2591,VALID,45,VALID,0.173438,
2008-06-08, 00:35:04,VALID,1008.81,VALID,0,VALID,93.873,VALID,0,VALID,24.2591,VALID,45,VALID,0.236328,
2008-06-08, 00:36:04,VALID,1008.83,VALID,0,VALID,93.9112,VALID,0.105969,VALID,24.2396,VALID,45,VALID,0.340234,
2008-06-08, 00:37:04,VALID,1008.78,VALID,0,VALID,93.9417,VALID,0.105969,VALID,24.2591,VALID,45,VALID,0.269922,
2008-06-08, 00:38:04,VALID,1008.8,VALID,0,VALID,93.9569,VALID,0.105969,VALID,24.2396,VALID,45,VALID,0.550781,
2008-06-08, 00:39:04,VALID,1008.79,VALID,0,VALID,93.9798,VALID,0.105969,VALID,24.2202,VALID,46,VALID,0.770703,
2008-06-08, 00:40:04,VALID,1008.79,VALID,0,VALID,94.0103,VALID,0,VALID,24.2007,VALID,52,VALID,0.6125,
2008-06-08, 00:41:04,VALID,1008.82,VALID,0,VALID,94.0637,VALID,0.105969,VALID,24.2202,VALID,60,VALID,0.455859,
2008-06-08, 00:42:04,VALID,1008.77,VALID,0,VALID,94.1247,VALID,0,VALID,24.1793,VALID,59,VALID,0.296875,
2008-06-08, 00:43:04,VALID,1008.8,VALID,0,VALID,94.1247,VALID,0,VALID,24.1812,VALID,59,VALID,0.403516,
2008-06-08, 00:44:04,VALID,1008.81,VALID,0,VALID,94.1476,VALID,0,VALID,24.1617,VALID,58,VALID,0.453906,
2008-06-08, 00:45:04,VALID,1008.81,VALID,0,VALID,94.2086,VALID,0,VALID,24.183,VALID,58,VALID,0.299219,
2008-06-08, 00:46:04,VALID,1008.86,VALID,0,VALID,94.2238,VALID,0,VALID,24.183,VALID,58,VALID,0.376953,
2008-06-08, 00:47:04,VALID,1008.84,VALID,0,VALID,94.2467,VALID,0,VALID,24.1617,VALID,58,VALID,0.326953,
2008-06-08, 00:48:04,VALID,1008.84,VALID,0,VALID,94.2772,VALID,0,VALID,24.1617,VALID,58,VALID,0.407422,
2008-06-08, 00:49:04,VALID,1008.84,VALID,0,VALID,94.3001,VALID,0,VALID,24.1617,VALID,58,VALID,0.335156,
2008-06-08, 00:50:04,VALID,1008.83,VALID,0,VALID,94.3001,VALID,0,VALID,24.1422,VALID,58,VALID,0.246094,
2008-06-08, 00:51:04,VALID,1008.84,VALID,0,VALID,94.3534,VALID,0,VALID,24.144,VALID,58,VALID,0.288281,
2008-06-08, 00:52:04,VALID,1008.87,VALID,0,VALID,94.3763,VALID,0,VALID,24.1227,VALID,58,VALID,0.0410156,
2008-06-08, 00:53:04,VALID,1008.84,VALID,0,VALID,94.3839,VALID,0,VALID,24.1245,VALID,58,VALID,0.00117188,
2008-06-08, 00:54:04,VALID,1008.85,VALID,0,VALID,94.4221,VALID,0,VALID,24.1227,VALID,58,VALID,0.0046875,
2008-06-08, 00:55:04,VALID,1008.84,VALID,0,VALID,94.4602,VALID,0,VALID,24.1422,VALID,58,VALID,0.148047,
2008-06-08, 00:56:04,VALID,1008.84,VALID,0,VALID,94.4983,VALID,0,VALID,24.144,VALID,58,VALID,0.328125,
2008-06-08, 00:57:04,VALID,1008.82,VALID,0,VALID,94.4907,VALID,0,VALID,24.1032,VALID,57,VALID,0.3625,
2008-06-08, 00:58:04,VALID,1008.81,VALID,0,VALID,94.4907,VALID,0,VALID,24.1032,VALID,30,VALID,0.448438,
2008-06-08, 00:59:04,VALID,1008.8,VALID,0,VALID,94.506,VALID,0,VALID,24.1032,VALID,20,VALID,0.464063,
2008-06-08, 01:00:04,VALID,1008.81,VALID,0,VALID,94.506,VALID,0,VALID,24.1032,VALID,19,VALID,0.427344,
2008-06-08, 01:01:04,VALID,1008.82,VALID,0,VALID,94.5517,VALID,0,VALID,24.1245,VALID,17,VALID,0.391797,
2008-06-08, 01:02:04,VALID,1008.8,VALID,0,VALID,94.5898,VALID,0,VALID,24.1051,VALID,17,VALID,0.107031,
2008-06-08, 01:03:04,VALID,1008.83,VALID,0,VALID,94.6127,VALID,0,VALID,24.1032,VALID,17,VALID,0,
2008-06-08, 01:04:04,VALID,1008.83,VALID,0,VALID,94.6432,VALID,0,VALID,24.1032,VALID,17,VALID,0.0457031,
2008-06-08, 01:05:04,VALID,1008.85,VALID,0,VALID,94.6966,VALID,0,VALID,24.144,VALID,17,VALID,0.159766,
2008-06-08, 01:06:04,VALID,1008.81,VALID,0,VALID,94.7119,VALID,0,VALID,24.144,VALID,17,VALID,0,
2008-06-08, 01:07:04,VALID,1008.81,VALID,0,VALID,94.7119,VALID,0,VALID,24.1422,VALID,17,VALID,0,
2008-06-08, 01:08:04,VALID,1008.83,VALID,0,VALID,94.6737,VALID,0,VALID,24.1635,VALID,17,VALID,0,
2008-06-08, 01:09:04,VALID,1008.81,VALID,0,VALID,94.6661,VALID,0,VALID,24.1635,VALID,17,VALID,0,
2008-06-08, 01:10:04,VALID,1008.79,VALID,0,VALID,94.7119,VALID,0,VALID,24.1422,VALID,17,VALID,0,
2008-06-08, 01:11:04,VALID,1008.81,VALID,0,VALID,94.6432,VALID,0,VALID,24.183,VALID,17,VALID,0,
2008-06-08, 01:12:04,VALID,1008.82,VALID,0,VALID,94.6203,VALID,0,VALID,24.1617,VALID,17,VALID,0.274609,
2008-06-08, 01:13:04,VALID,1008.8,VALID,0,VALID,94.5898,VALID,0,VALID,24.1599,VALID,17,VALID,0.186328,
2008-06-08, 01:14:04,VALID,1008.79,VALID,0,VALID,94.5593,VALID,0,VALID,24.1812,VALID,17,VALID,0.0246094,
2008-06-08, 01:15:04,VALID,1008.8,VALID,0,VALID,94.5441,VALID,0,VALID,24.1599,VALID,17,VALID,0,
2008-06-08, 01:16:04,VALID,1008.8,VALID,0,VALID,94.5593,VALID,0.105969,VALID,24.2007,VALID,17,VALID,0,
2008-06-08, 01:17:04,VALID,1008.78,VALID,0,VALID,94.6127,VALID,0.105969,VALID,24.1793,VALID,17,VALID,0,
2008-06-08, 01:18:04,VALID,1008.76,VALID,0,VALID,94.5898,VALID,0.105969,VALID,24.2007,VALID,17,VALID,0,
2008-06-08, 01:19:04,VALID,1008.74,VALID,0,VALID,94.5441,VALID,0.105969,VALID,24.2202,VALID,17,VALID,0,
2008-06-08, 01:20:04,VALID,1008.72,VALID,0,VALID,94.5365,VALID,0.105969,VALID,24.1793,VALID,17,VALID,0,
2008-06-08, 01:21:04,VALID,1008.7,VALID,0,VALID,94.5365,VALID,0,VALID,24.1793,VALID,17,VALID,0,
2008-06-08, 01:22:04,VALID,1008.69,VALID,0,VALID,94.5365,VALID,0,VALID,24.2007,VALID,17,VALID,0,
2008-06-08, 01:23:04,VALID,1008.65,VALID,0,VALID,94.567,VALID,0,VALID,24.2007,VALID,17,VALID,0,
2008-06-08, 01:24:04,VALID,1008.62,VALID,0,VALID,94.5517,VALID,0,VALID,24.2007,VALID,17,VALID,0,
2008-06-08, 01:25:04,VALID,1008.64,VALID,0,VALID,94.5136,VALID,0,VALID,24.1599,VALID,17,VALID,0,
2008-06-08, 01:26:04,VALID,1008.58,VALID,0,VALID,94.4831,VALID,0,VALID,24.2007,VALID,17,VALID,0,
2008-06-08, 01:27:04,VALID,1008.56,VALID,0,VALID,94.4831,VALID,0.105969,VALID,24.2007,VALID,15,VALID,0,
2008-06-08, 01:28:04,VALID,1008.55,VALID,0,VALID,94.4526,VALID,0,VALID,24.1812,VALID,13,VALID,0,
2008-06-08, 01:29:04,VALID,1008.53,VALID,0,VALID,94.4068,VALID,0,VALID,24.183,VALID,13,VALID,0,
2008-06-08, 01:30:04,VALID,1008.53,VALID,0,VALID,94.4221,VALID,0,VALID,24.1617,VALID,13,VALID,0,
2008-06-08, 01:31:04,VALID,1008.52,VALID,0,VALID,94.4602,VALID,0,VALID,24.1617,VALID,13,VALID,0.125,
2008-06-08, 01:32:04,VALID,1008.5,VALID,0,VALID,94.4145,VALID,0,VALID,24.183,VALID,13,VALID,0.335547,
2008-06-08, 01:33:04,VALID,1008.51,VALID,0,VALID,94.4068,VALID,0,VALID,24.1635,VALID,13,VALID,0.314453,
2008-06-08, 01:34:04,VALID,1008.5,VALID,0,VALID,94.4678,VALID,0,VALID,24.1635,VALID,13,VALID,0.232031,
2008-06-08, 01:35:04,VALID,1008.52,VALID,0,VALID,94.4755,VALID,0,VALID,24.1422,VALID,13,VALID,0.322656,
2008-06-08, 01:36:04,VALID,1008.52,VALID,0,VALID,94.4678,VALID,0,VALID,24.144,VALID,13,VALID,0.331641,
2008-06-08, 01:37:04,VALID,1008.52,VALID,0,VALID,94.5288,VALID,0,VALID,24.144,VALID,13,VALID,0.287109,
2008-06-08, 01:38:04,VALID,1008.53,VALID,0,VALID,94.5136,VALID,0,VALID,24.1635,VALID,13,VALID,0.305078,
2008-06-08, 01:39:04,VALID,1008.54,VALID,0,VALID,94.5288,VALID,0,VALID,24.144,VALID,13,VALID,0.219531,
2008-06-08, 01:40:04,VALID,1008.54,VALID,0,VALID,94.5746,VALID,0,VALID,24.1227,VALID,13,VALID,0.197656,
2008-06-08, 01:41:04,VALID,1008.51,VALID,0,VALID,94.6051,VALID,0,VALID,24.1032,VALID,13,VALID,0.179297,
2008-06-08, 01:42:04,VALID,1008.53,VALID,0,VALID,94.6432,VALID,0,VALID,24.1245,VALID,13,VALID,0.0953125,
2008-06-08, 01:43:04,VALID,1008.49,VALID,0,VALID,94.6661,VALID,0,VALID,24.1227,VALID,13,VALID,0.142188,
2008-06-08, 01:44:04,VALID,1008.49,VALID,0,VALID,94.689,VALID,0.105969,VALID,24.1227,VALID,13,VALID,0.201953,
2008-06-08, 01:45:04,VALID,1008.47,VALID,0,VALID,94.7042,VALID,0.105969,VALID,24.1227,VALID,13,VALID,0.187891,
2008-06-08, 01:46:04,VALID,1008.49,VALID,0,VALID,94.7347,VALID,0.105969,VALID,24.1422,VALID,13,VALID,0.0683594,
2008-06-08, 01:47:04,VALID,1008.44,VALID,0,VALID,94.75,VALID,0,VALID,24.0819,VALID,13,VALID,0,
2008-06-08, 01:48:04,VALID,1008.46,VALID,0,VALID,94.7347,VALID,0.105969,VALID,24.1227,VALID,13,VALID,0,
2008-06-08, 01:49:04,VALID,1008.45,VALID,0,VALID,94.7347,VALID,0.105969,VALID,24.1227,VALID,13,VALID,0,
2008-06-08, 01:50:04,VALID,1008.41,VALID,0,VALID,94.75,VALID,0,VALID,24.0819,VALID,13,VALID,0.195313,
2008-06-08, 01:51:04,VALID,1008.4,VALID,0,VALID,94.7576,VALID,0,VALID,24.0819,VALID,13,VALID,0.240234,
2008-06-08, 01:52:04,VALID,1008.42,VALID,0,VALID,94.7347,VALID,0.105969,VALID,24.0819,VALID,13,VALID,0.114844,
2008-06-08, 01:53:04,VALID,1008.42,VALID,0,VALID,94.7347,VALID,0.105969,VALID,24.0837,VALID,13,VALID,0,
2008-06-08, 01:54:04,VALID,1008.41,VALID,0,VALID,94.7576,VALID,0.105969,VALID,24.0624,VALID,13,VALID,0,
2008-06-08, 01:55:04,VALID,1008.38,VALID,0,VALID,94.7652,VALID,0.105969,VALID,24.0837,VALID,13,VALID,0,
2008-06-08, 01:56:04,VALID,1008.38,VALID,0,VALID,94.8034,VALID,0.105969,VALID,24.0624,VALID,13,VALID,0,
2008-06-08, 01:57:04,VALID,1008.35,VALID,0,VALID,94.7881,VALID,0.105969,VALID,24.1032,VALID,13,VALID,0,
2008-06-08, 01:58:04,VALID,1008.35,VALID,0,VALID,94.7957,VALID,0.105969,VALID,24.0624,VALID,13,VALID,0,
2008-06-08, 01:59:04,VALID,1008.32,VALID,0,VALID,94.7881,VALID,0.105969,VALID,24.0837,VALID,13,VALID,0,
2008-06-08, 02:00:04,VALID,1008.31,VALID,0,VALID,94.7957,VALID,0.105969,VALID,24.0624,VALID,13,VALID,0.275781,
2008-06-08, 02:01:04,VALID,1008.32,VALID,0,VALID,94.8186,VALID,0,VALID,24.0837,VALID,13,VALID,0.214453,
2008-06-08, 02:02:04,VALID,1008.29,VALID,0,VALID,94.8186,VALID,0.105969,VALID,24.0624,VALID,13,VALID,0.158203,
2008-06-08, 02:03:04,VALID,1008.29,VALID,0,VALID,94.8186,VALID,0.105969,VALID,24.0624,VALID,13,VALID,0.246094,
2008-06-08, 02:04:04,VALID,1008.27,VALID,0,VALID,94.8262,VALID,0.105969,VALID,24.1032,VALID,13,VALID,0.189844,
2008-06-08, 02:05:04,VALID,1008.27,VALID,0,VALID,94.8415,VALID,0.105969,VALID,24.0837,VALID,13,VALID,0.245703,
2008-06-08, 02:06:04,VALID,1008.26,VALID,0,VALID,94.8568,VALID,0.105969,VALID,24.0837,VALID,13,VALID,0,
2008-06-08, 02:07:04,VALID,1008.25,VALID,0,VALID,94.872,VALID,0.105969,VALID,24.1032,VALID,13,VALID,0,
2008-06-08, 02:08:04,VALID,1008.25,VALID,0,VALID,94.8796,VALID,0.105969,VALID,24.0819,VALID,13,VALID,0,
2008-06-08, 02:09:04,VALID,1008.23,VALID,0,VALID,94.8644,VALID,0,VALID,24.0819,VALID,13,VALID,0,
2008-06-08, 02:10:04,VALID,1008.24,VALID,0,VALID,94.8796,VALID,0.105969,VALID,24.1032,VALID,13,VALID,0,
2008-06-08, 02:11:04,VALID,1008.19,VALID,0,VALID,94.8415,VALID,0.105969,VALID,24.0624,VALID,13,VALID,0.185547,
2008-06-08, 02:12:04,VALID,1008.2,VALID,0,VALID,94.8262,VALID,0,VALID,24.0837,VALID,13,VALID,0.214453,
2008-06-08, 02:13:04,VALID,1008.18,VALID,0,VALID,94.8186,VALID,0,VALID,24.0448,VALID,13,VALID,0.243359,
2008-06-08, 02:14:04,VALID,1008.17,VALID,0,VALID,94.811,VALID,0,VALID,24.0448,VALID,13,VALID,0.194922,
2008-06-08, 02:15:04,VALID,1008.16,VALID,0,VALID,94.8415,VALID,0,VALID,24.0448,VALID,13,VALID,0.214453,
2008-06-08, 02:16:04,VALID,1008.15,VALID,0,VALID,94.8415,VALID,0,VALID,24.0448,VALID,13,VALID,0.219141,
2008-06-08, 02:17:04,VALID,1008.17,VALID,0,VALID,94.8491,VALID,0,VALID,24.0253,VALID,13,VALID,0.278516,
2008-06-08, 02:18:04,VALID,1008.18,VALID,0,VALID,94.8568,VALID,0,VALID,24.0448,VALID,13,VALID,0.304688,
2008-06-08, 02:19:04,VALID,1008.18,VALID,0,VALID,94.8796,VALID,0,VALID,24.0253,VALID,13,VALID,0.319922,
2008-06-08, 02:20:04,VALID,1008.16,VALID,0,VALID,94.9101,VALID,0,VALID,24.0058,VALID,13,VALID,0.199609,
2008-06-08, 02:21:04,VALID,1008.18,VALID,0,VALID,94.9101,VALID,0,VALID,24.0271,VALID,13,VALID,0.141406,
2008-06-08, 02:22:04,VALID,1008.17,VALID,0,VALID,94.8949,VALID,0,VALID,24.0058,VALID,13,VALID,0.0828125,
2008-06-08, 02:23:04,VALID,1008.17,VALID,0,VALID,94.9178,VALID,0,VALID,24.0076,VALID,13,VALID,0.0925781,
2008-06-08, 02:24:04,VALID,1008.17,VALID,0,VALID,94.9559,VALID,0,VALID,24.0076,VALID,13,VALID,0,
2008-06-08, 02:25:04,VALID,1008.16,VALID,0,VALID,94.9788,VALID,0,VALID,24.0058,VALID,13,VALID,0.185937,
2008-06-08, 02:26:04,VALID,1008.14,VALID,0,VALID,95.0016,VALID,0,VALID,24.0076,VALID,13,VALID,0.194922,
2008-06-08, 02:27:04,VALID,1008.15,VALID,0,VALID,95.0093,VALID,0,VALID,23.9863,VALID,13,VALID,0.164063,
2008-06-08, 02:28:04,VALID,1008.13,VALID,0,VALID,95.0245,VALID,0,VALID,24.0058,VALID,13,VALID,0.236328,
2008-06-08, 02:29:04,VALID,1008.12,VALID,0,VALID,95.0626,VALID,0,VALID,24.0271,VALID,13,VALID,0,
2008-06-08, 02:30:04,VALID,1008.12,VALID,0,VALID,95.055,VALID,0.105969,VALID,23.9845,VALID,13,VALID,0,
2008-06-08, 02:31:04,VALID,1008.11,VALID,0,VALID,95.0703,VALID,0,VALID,23.9845,VALID,13,VALID,0,
2008-06-08, 02:32:04,VALID,1008.08,VALID,0,VALID,95.0779,VALID,0.105969,VALID,24.004,VALID,13,VALID,0,
2008-06-08, 02:33:04,VALID,1008.1,VALID,0,VALID,95.0855,VALID,0.105969,VALID,24.0058,VALID,13,VALID,0,
2008-06-08, 02:34:04,VALID,1008.1,VALID,0,VALID,95.0931,VALID,0.105969,VALID,23.9845,VALID,13,VALID,0,
2008-06-08, 02:35:04,VALID,1008.07,VALID,0,VALID,95.1236,VALID,0.105969,VALID,24.004,VALID,13,VALID,0,
2008-06-08, 02:36:04,VALID,1008.09,VALID,0,VALID,95.116,VALID,0.105969,VALID,24.0253,VALID,13,VALID,0,
2008-06-08, 02:37:04,VALID,1008.06,VALID,0,VALID,95.116,VALID,0,VALID,24.004,VALID,13,VALID,0.163672,
2008-06-08, 02:38:04,VALID,1008.05,VALID,0,VALID,95.1542,VALID,0.105969,VALID,23.9845,VALID,13,VALID,0.145703,
2008-06-08, 02:39:04,VALID,1008.07,VALID,0,VALID,95.1465,VALID,0.105969,VALID,24.0235,VALID,13,VALID,0.239844,
2008-06-08, 02:40:04,VALID,1008.05,VALID,0,VALID,95.1389,VALID,0,VALID,24.0253,VALID,13,VALID,0.135937,
2008-06-08, 02:41:04,VALID,1008.03,VALID,0,VALID,95.1694,VALID,0.105969,VALID,24.004,VALID,13,VALID,0.188281,
2008-06-08, 02:42:04,VALID,1008.04,VALID,0,VALID,95.177,VALID,0,VALID,24.004,VALID,13,VALID,0.154297,
2008-06-08, 02:43:04,VALID,1008.05,VALID,0,VALID,95.1923,VALID,0.105969,VALID,24.004,VALID,13,VALID,0,
2008-06-08, 02:44:04,VALID,1008.02,VALID,0,VALID,95.177,VALID,0.105969,VALID,24.004,VALID,13,VALID,0.0105469,
2008-06-08, 02:45:04,VALID,1008.02,VALID,0,VALID,95.1694,VALID,0.105969,VALID,23.9845,VALID,13,VALID,0,
2008-06-08, 02:46:04,VALID,1007.99,VALID,0,VALID,95.177,VALID,0.105969,VALID,24.004,VALID,13,VALID,0.0015625,
2008-06-08, 02:47:04,VALID,1008,VALID,0,VALID,95.177,VALID,0.105969,VALID,24.0058,VALID,13,VALID,0.0890625,
2008-06-08, 02:48:04,VALID,1008,VALID,0,VALID,95.2075,VALID,0.105969,VALID,24.0253,VALID,13,VALID,0.340234,
2008-06-08, 02:49:04,VALID,1007.96,VALID,0,VALID,95.2152,VALID,0,VALID,23.9845,VALID,28,VALID,0.424219,
2008-06-08, 02:50:05,VALID,1007.97,VALID,0,VALID,95.2304,VALID,0.105969,VALID,24.004,VALID,48,VALID,0.539844,
2008-06-08, 02:51:05,VALID,1007.95,VALID,0,VALID,95.2304,VALID,0.105969,VALID,24.004,VALID,53,VALID,0.484375,
2008-06-08, 02:52:05,VALID,1007.92,VALID,0,VALID,95.238,VALID,0.105969,VALID,24.004,VALID,53,VALID,0.447266,
2008-06-08, 02:53:05,VALID,1007.93,VALID,0,VALID,95.2685,VALID,0.105969,VALID,24.004,VALID,65,VALID,0.777734,
2008-06-08, 02:54:05,VALID,1007.95,VALID,0,VALID,95.3067,VALID,0.105969,VALID,24.0235,VALID,72,VALID,0.766797,
2008-06-08, 02:55:05,VALID,1007.92,VALID,0,VALID,95.3143,VALID,0.105969,VALID,24.0429,VALID,77,VALID,0.825781,
2008-06-08, 02:56:05,VALID,1007.97,VALID,0,VALID,95.3219,VALID,0.105969,VALID,24.0624,VALID,76,VALID,0.594141,
2008-06-08, 02:57:05,VALID,1007.96,VALID,0,VALID,95.3067,VALID,0.105969,VALID,24.0624,VALID,91,VALID,0.517969,
2008-06-08, 02:58:05,VALID,1007.98,VALID,0,VALID,95.3219,VALID,0,VALID,24.0837,VALID,93,VALID,0.608984,
2008-06-08, 02:59:05,VALID,1007.98,VALID,0,VALID,95.3219,VALID,0,VALID,24.1032,VALID,82,VALID,0.561719,
2008-06-08, 03:00:05,VALID,1007.97,VALID,0,VALID,95.3143,VALID,0,VALID,24.1032,VALID,80,VALID,0.530859,
2008-06-08, 03:01:05,VALID,1007.99,VALID,0,VALID,95.3219,VALID,0,VALID,24.0837,VALID,79,VALID,0.515234,
2008-06-08, 03:02:05,VALID,1007.98,VALID,0,VALID,95.299,VALID,0,VALID,24.1032,VALID,77,VALID,0.848828,
2008-06-08, 03:03:05,VALID,1008,VALID,0,VALID,95.2838,VALID,0,VALID,24.1032,VALID,76,VALID,0.911328,
2008-06-08, 03:04:05,VALID,1008.01,VALID,0,VALID,95.2685,VALID,0,VALID,24.1245,VALID,62,VALID,0.565234,
2008-06-08, 03:05:05,VALID,1008.01,VALID,0,VALID,95.2533,VALID,0,VALID,24.1032,VALID,77,VALID,0.971875,
2008-06-08, 03:06:05,VALID,1008.01,VALID,0,VALID,95.2457,VALID,0,VALID,24.1032,VALID,85,VALID,0.661328,
2008-06-08, 03:07:05,VALID,1008,VALID,0,VALID,95.238,VALID,0,VALID,24.1245,VALID,85,VALID,0.666016,
2008-06-08, 03:08:05,VALID,1008.03,VALID,0,VALID,95.2457,VALID,0,VALID,24.1227,VALID,95,VALID,1.23672,
2008-06-08, 03:09:05,VALID,1008.02,VALID,0,VALID,95.2533,VALID,0,VALID,24.1032,VALID,108,VALID,0.937109,
2008-06-08, 03:10:05,VALID,1008,VALID,0,VALID,95.238,VALID,0,VALID,24.1227,VALID,68,VALID,0.871484,
2008-06-08, 03:11:05,VALID,1008.02,VALID,0,VALID,95.1923,VALID,0,VALID,24.1032,VALID,90,VALID,1.15977,
2008-06-08, 03:12:05,VALID,1008.01,VALID,0,VALID,95.1694,VALID,0,VALID,24.1032,VALID,94,VALID,1.0582,
2008-06-08, 03:13:05,VALID,1008.03,VALID,0,VALID,95.177,VALID,0,VALID,24.1032,VALID,95,VALID,0.591016,
2008-06-08, 03:14:05,VALID,1008.02,VALID,0,VALID,95.1618,VALID,0,VALID,24.1051,VALID,66,VALID,1.00195,
2008-06-08, 03:15:05,VALID,1008.03,VALID,0,VALID,95.1694,VALID,0,VALID,24.0837,VALID,107,VALID,0.931641,
2008-06-08, 03:16:05,VALID,1008.03,VALID,0,VALID,95.1694,VALID,0,VALID,24.1245,VALID,102,VALID,1.07148,
2008-06-08, 03:17:05,VALID,1008.05,VALID,0,VALID,95.1694,VALID,0,VALID,24.1032,VALID,95,VALID,0.666797,
2008-06-08, 03:18:05,VALID,1008.04,VALID,0,VALID,95.1465,VALID,0,VALID,24.1032,VALID,93,VALID,0.868359,
2008-06-08, 03:19:05,VALID,1008.04,VALID,0,VALID,95.1618,VALID,0,VALID,24.1245,VALID,81,VALID,1.2375,
2008-06-08, 03:20:05,VALID,1008.06,VALID,0,VALID,95.1618,VALID,0,VALID,24.1245,VALID,87,VALID,0.867578,
2008-06-08, 03:21:05,VALID,1008.07,VALID,0,VALID,95.1542,VALID,0,VALID,24.1227,VALID,76,VALID,1.15586,
2008-06-08, 03:22:05,VALID,1008.09,VALID,0,VALID,95.1618,VALID,0,VALID,24.1051,VALID,89,VALID,1.15391,
2008-06-08, 03:23:05,VALID,1008.09,VALID,0,VALID,95.1542,VALID,0,VALID,24.0856,VALID,76,VALID,1.01992,
2008-06-08, 03:24:05,VALID,1008.11,VALID,0,VALID,95.1618,VALID,0,VALID,24.1051,VALID,85,VALID,0.832031,
2008-06-08, 03:25:05,VALID,1008.13,VALID,0,VALID,95.177,VALID,0,VALID,24.0837,VALID,79,VALID,0.841406,
2008-06-08, 03:26:05,VALID,1008.13,VALID,0,VALID,95.1923,VALID,0,VALID,24.0643,VALID,72,VALID,0.875391,
2008-06-08, 03:27:05,VALID,1008.15,VALID,0,VALID,95.2152,VALID,0,VALID,24.0856,VALID,69,VALID,0.742969,
2008-06-08, 03:28:05,VALID,1008.14,VALID,0,VALID,95.2228,VALID,0,VALID,24.0837,VALID,77,VALID,0.764844,
2008-06-08, 03:29:05,VALID,1008.15,VALID,0,VALID,95.2762,VALID,0,VALID,24.0643,VALID,91,VALID,1.11211,
2008-06-08, 03:30:05,VALID,1008.15,VALID,0,VALID,95.2838,VALID,0.105969,VALID,24.0624,VALID,85,VALID,0.5375,
2008-06-08, 03:31:05,VALID,1008.19,VALID,0,VALID,95.3219,VALID,0,VALID,24.0837,VALID,97,VALID,0.632422,
2008-06-08, 03:32:05,VALID,1008.19,VALID,0,VALID,95.3295,VALID,0,VALID,24.0624,VALID,80,VALID,0.657031,
2008-06-08, 03:33:05,VALID,1008.21,VALID,0,VALID,95.3524,VALID,0.105969,VALID,24.0624,VALID,89,VALID,0.397656,
2008-06-08, 03:34:05,VALID,1008.23,VALID,0,VALID,95.3829,VALID,0.105969,VALID,24.0837,VALID,106,VALID,0.435547,
2008-06-08, 03:35:05,VALID,1008.2,VALID,0,VALID,95.4058,VALID,0.105969,VALID,24.0624,VALID,97,VALID,0.467187,
2008-06-08, 03:36:05,VALID,1008.24,VALID,0,VALID,95.3829,VALID,0.105969,VALID,24.0819,VALID,97,VALID,0.36875,
2008-06-08, 03:37:05,VALID,1008.24,VALID,0,VALID,95.3905,VALID,0,VALID,24.0837,VALID,94,VALID,0.1875,
2008-06-08, 03:38:05,VALID,1008.23,VALID,0,VALID,95.4058,VALID,0.105969,VALID,24.0819,VALID,94,VALID,0.102344,
2008-06-08, 03:39:05,VALID,1008.23,VALID,0,VALID,95.3982,VALID,0.105969,VALID,24.0819,VALID,101,VALID,0.326172,
2008-06-08, 03:40:05,VALID,1008.24,VALID,0,VALID,95.4134,VALID,0,VALID,24.0819,VALID,113,VALID,0.305469,
2008-06-08, 03:41:05,VALID,1008.24,VALID,0,VALID,95.4134,VALID,0.105969,VALID,24.0819,VALID,106,VALID,0.500391,
2008-06-08, 03:42:05,VALID,1008.27,VALID,0,VALID,95.4287,VALID,0.105969,VALID,24.1032,VALID,106,VALID,0.180078,
2008-06-08, 03:43:05,VALID,1008.27,VALID,0,VALID,95.4211,VALID,0,VALID,24.0837,VALID,106,VALID,0.0652344,
2008-06-08, 03:44:05,VALID,1008.31,VALID,0,VALID,95.4439,VALID,0,VALID,24.1032,VALID,106,VALID,0.360938,